Back to catalog

STARLINK-35326

AliveCommunicationsVLEO
NORAD 66031·PAYLOAD·🇺🇸 United States

Launched Oct 16, 2025 from Cape Canaveral Space Force Station

Loading…

Next Passes (next 24 hours)

TLE

FreshSource: CelesTrak SupGP

Epoch: Sep 14, 2026, 15:02 UTC

1 66031C 25232AC  26257.62687500  .00031389  00000+0  92772-3 0  2576
2 66031  53.1578 302.8227 0001209  81.9956 210.8391 15.34364320    17

Track STARLINK-35326 in real time with AllMySat

Download on the App Store